sat.trackr.live / text

‹ back to catalog

STARLINK-35750

NORAD 66209 · 2025-244D

PAYLOAD ACTIVE UNKNOWN

§ Identity

Operator
Country
US
Launch date
2025-10-28
Launch site
AFWTR
Launch vehicle
Mass (kg)
RCS (m²)

Purposes: comms

External: N2YO · Heavens-Above · Gunter

§ Orbital elements

Epoch: 2026-09-20T13:15:02.506176Z

Period
93.85 min
Inclination
53.1593°
Eccentricity
0.0002580
Mean motion
15.34397712 rev/d
Perigee alt
460.9 km
Apogee alt
464.5 km
Semi-major
6,840.8 km
B*
6.7987e-4
RAAN
41.2634°
Arg perigee
140.8805°
Mean anomaly
219.2384°
Rev number
5,154

§ Raw data

STARLINK-357501 66209U 25244D   26263.55211234  .00022663  00000+0  67987-3 0  99902 66209  53.1593  41.2634 0002580 140.8805 219.2384 15.34397712 51548

JSON: /api/v1/satellites/66209 · /tle

For live sub-satellite position, see the globe view (requires WebGL).

§ Visibility from observer

Set your observer location to see the next 7 days of passes ≥ 10°. The values pass through the URL so the page stays shareable.

No JS? Fill the form by hand. The geolocation button needs JavaScript.